This is the latest recevied weather packets stored in our database for station/object CQ0XVC-11. If no packets are shown the sender has not sent any weather packets the latest 10 day(s).
| Time | Temp. | Humidity | Pressure | Rain* | Wind** | Luminosity | Snow |
|---|---|---|---|---|---|---|---|
| 1777627276 | 15.56° C | 56% | 1006.4 hPa | 0 mm | - | - | - |
| 1777627239 | 15.56° C | 56% | 1006.4 hPa | 0 mm | - | - | - |
| 1777626977 | 15° C | 64% | 1006.4 hPa | 0 mm | - | - | - |
| 1777626937 | 15° C | 64% | 1006.4 hPa | 0 mm | - | - | - |
| 1777626635 | 15° C | 59% | 1006.5 hPa | 0 mm | - | - | - |
| 1777626410 | 14.44° C | 63% | 1006.6 hPa | 0 mm | - | - | - |
| 1777626333 | 14.44° C | 63% | 1006.6 hPa | 0 mm | - | - | - |
| 1777626030 | 14.44° C | 61% | 1006.5 hPa | 0 mm | - | - | - |
| 1777625774 | 13.89° C | 67% | 1006.3 hPa | 0 mm | - | - | - |
| 1777625729 | 13.89° C | 67% | 1006.3 hPa | 0 mm | - | - | - |
| 1777625660 | 13.89° C | 63% | 1006.2 hPa | 0 mm | - | - | - |
| 1777625627 | 13.89° C | 63% | 1006.2 hPa | 0 mm | - | - | - |
| 1777625571 | 13.89° C | 65% | 1006.4 hPa | 0 mm | - | - | - |
| 1777625534 | 13.89° C | 65% | 1006.4 hPa | 0 mm | - | - | - |
| 1777625445 | 13.89° C | 66% | 1006.4 hPa | 0 mm | - | - | - |
| 1777625236 | 13.89° C | 65% | 1006.3 hPa | 0 mm | - | - | - |
| 1777624935 | 13.89° C | 67% | 1006.5 hPa | 0 mm | - | - | - |
| 1777624632 | 13.89° C | 74% | 1006.5 hPa | 0 mm | - | - | - |
| 1777624426 | 13.33° C | 71% | 1006.4 hPa | 0 mm | - | - | - |
| 1777624330 | 13.33° C | 71% | 1006.4 hPa | 0 mm | - | - | - |
| 1777624028 | 12.78° C | 73% | 1006.4 hPa | 0 mm | - | - | - |
| 1777623783 | 11.67° C | 72% | 1006.3 hPa | 0 mm | - | - | - |
| 1777623726 | 11.67° C | 72% | 1006.3 hPa | 0 mm | - | - | - |
| 1777623464 | 11.67° C | 73% | 1006.3 hPa | 0 mm | - | - | - |
| 1777623423 | 11.67° C | 73% | 1006.3 hPa | 0 mm | - | - | - |
* Rain since midnight (hover to see other rain measurements)
** Current wind speed in m/s (hover to see current wind gust speed)